PBO Station Position Time Series. Reference Frame : NAM14
Format Version,1.1.0
4-character ID,ILUC
Station name,Univ_Illinois_2
Begin Date, 2009-03-03
End Date, 2019-10-07
Release Date, 2019-10-08
Reference position, 40.0989983309 North Latitude, -88.2202969674 East Longitude, 232.62631 meters elevation,
Date, North (mm), East (mm), Vertical (mm), North Std. Deviation (mm), East Std. Deviation (mm),              Vertical Std. Deviation (mm), Quality,
2009-03-03,0.00, 0.00, 0.00, 2.07, 1.72, 7.60, repro,
2009-03-04,-0.01, 1.07, 5.04, 1.99, 1.63, 7.19, repro,
2009-03-05,3.90, 3.29, 4.25, 2.12, 1.71, 7.49, repro,
2009-03-06,10.79, 6.67, -5.14, 2.17, 1.73, 7.64, repro,
2009-03-07,6.64, 5.66, -2.35, 1.99, 1.63, 7.13, repro,
2009-03-08,6.51, 3.30, -2.18, 2.16, 1.73, 7.77, repro,
2009-03-09,1.21, 0.70, 3.23, 2.33, 1.79, 8.02, repro,
2009-03-10,1.74, 1.14, 5.91, 2.03, 1.66, 7.30, repro,
2009-03-11,3.02, -0.48, 0.79, 1.98, 1.64, 7.16, repro,
2009-03-12,1.35, -0.46, -4.62, 2.03, 1.67, 7.26, repro,
2009-03-13,0.88, -0.72, 0.65, 2.29, 1.76, 7.81, repro,
2009-03-14,1.12, 0.31, 3.65, 2.11, 1.71, 7.48, repro,
2009-03-15,2.52, 1.97, 3.76, 1.95, 1.59, 7.05, repro,
2009-03-16,4.11, 2.90, -2.38, 2.04, 1.67, 7.27, repro,
2009-03-17,4.82, 3.98, -0.75, 1.94, 1.58, 6.96, repro,
2009-03-18,5.28, 3.34, 1.71, 1.94, 1.57, 6.96, repro,
2009-03-19,3.58, 0.67, 0.27, 1.96, 1.58, 7.00, repro,
2009-03-20,1.01, 0.15, 4.10, 1.95, 1.58, 7.01, repro,
2009-03-21,2.46, 1.10, -1.72, 1.96, 1.59, 7.05, repro,
2009-03-22,2.20, 1.51, 3.03, 1.95, 1.58, 7.00, repro,
2009-03-23,4.38, 2.81, -1.31, 1.95, 1.58, 6.99, repro,
2009-03-24,8.15, 5.32, 0.42, 1.95, 1.58, 6.98, repro,
2009-03-25,5.94, 1.80, 9.97, 1.98, 1.59, 7.10, repro,
2009-03-26,1.98, 1.23, 10.67, 1.97, 1.61, 7.13, repro,
2009-03-27,5.31, 1.44, 8.00, 1.98, 1.63, 7.23, repro,
2009-03-28,2.06, -0.12, 13.73, 1.99, 1.62, 7.18, repro,
2009-03-29,-0.32, -1.75, 15.50, 1.99, 1.63, 7.22, repro,
2009-03-30,1.98, 0.93, 12.40, 1.99, 1.62, 7.18, repro,
2009-03-31,0.89, -0.49, 6.80, 2.10, 1.74, 7.67, repro,
2009-04-01,1.90, 1.56, 7.62, 1.98, 1.62, 7.18, repro,
2009-04-02,6.07, 3.93, 7.36, 2.01, 1.68, 7.38, repro,
2009-04-03,0.23, 0.90, 10.57, 1.99, 1.68, 7.32, repro,
2009-04-04,3.83, 1.28, 2.57, 1.98, 1.61, 7.14, repro,
2009-04-05,4.30, -0.87, 3.54, 2.01, 1.63, 7.30, repro,
2009-04-06,2.82, -0.24, -2.47, 1.98, 1.62, 7.19, repro,
2009-04-07,-0.07, -1.81, 11.52, 1.97, 1.62, 7.16, repro,
2009-04-08,1.02, -1.02, 8.71, 1.98, 1.62, 7.20, repro,
2009-04-09,3.64, 1.25, 8.50, 1.98, 1.62, 7.19, repro,
2009-04-10,1.70, -0.00, 2.96, 1.98, 1.62, 7.18, repro,
2009-04-11,3.81, 0.14, -3.80, 2.03, 1.65, 7.44, repro,
2009-04-12,4.63, 2.65, -3.65, 1.98, 1.61, 7.15, repro,
2009-04-13,7.99, 5.12, -7.65, 1.99, 1.63, 7.20, repro,
2009-04-14,8.46, 4.21, -6.66, 1.98, 1.62, 7.18, repro,
2009-04-15,8.07, 2.80, -2.05, 1.99, 1.62, 7.17, repro,
2009-04-16,9.66, 5.33, -13.04, 1.98, 1.60, 7.14, repro,
2009-04-17,9.89, 5.38, -14.72, 1.97, 1.61, 7.13, repro,
2009-04-18,6.70, 4.38, -7.28, 1.98, 1.62, 7.16, repro,
2009-04-19,5.95, 3.17, -7.08, 2.01, 1.63, 7.23, repro,
2009-04-20,-0.72, 0.65, 3.03, 2.01, 1.63, 7.23, repro,
2009-04-21,4.60, 1.83, 4.17, 1.99, 1.61, 7.14, repro,
2009-04-22,2.25, 0.74, 5.09, 2.00, 1.61, 7.12, repro,
2009-04-23,6.16, 2.26, 4.17, 2.04, 1.66, 7.44, repro,
2009-04-24,7.34, 5.15, -5.21, 2.04, 1.66, 7.44, repro,
2009-04-25,8.81, 5.31, -7.06, 2.02, 1.64, 7.27, repro,
2009-04-26,6.53, 5.11, -8.78, 1.99, 1.63, 7.20, repro,
2009-04-27,2.79, 2.09, -10.30, 2.00, 1.64, 7.24, repro,
2009-04-28,9.51, 4.87, -23.31, 1.98, 1.63, 7.18, repro,
2009-04-29,3.97, 1.14, -11.17, 2.04, 1.66, 7.37, repro,
2009-04-30,1.38, -0.61, -6.65, 2.07, 1.68, 7.51, repro,
2009-05-01,7.56, 2.73, -11.24, 2.00, 1.64, 7.22, repro,
2009-05-02,3.72, 1.00, -5.35, 1.98, 1.62, 7.10, repro,
2009-05-03,5.24, 1.85, 0.11, 1.99, 1.62, 7.13, repro,
2009-05-04,6.55, 2.31, -3.45, 1.97, 1.62, 7.09, repro,
2009-05-05,9.19, 5.98, -9.72, 1.99, 1.64, 7.21, repro,
2009-05-06,8.56, 4.28, -5.73, 1.98, 1.64, 7.22, repro,
2009-05-07,8.15, 4.19, -12.47, 1.97, 1.63, 7.15, repro,
2009-05-08,4.08, 3.05, 7.10, 2.04, 1.65, 7.29, repro,
2009-05-09,4.45, 1.48, -2.41, 1.97, 1.62, 7.13, repro,
2009-05-10,3.69, 2.44, -6.10, 2.01, 1.68, 7.37, repro,
2009-05-11,6.80, 3.98, -6.87, 2.01, 1.68, 7.41, repro,
2009-05-12,5.34, 3.96, -3.59, 2.05, 1.72, 7.63, repro,
2009-05-13,8.35, 5.67, -3.35, 2.08, 1.71, 7.64, repro,
2009-05-14,8.46, 7.34, -4.74, 2.10, 1.79, 7.74, repro,
2009-05-15,11.67, 6.19, -13.55, 2.02, 1.66, 7.34, repro,
2009-05-16,0.77, -0.48, -3.87, 2.09, 1.71, 7.65, repro,
2009-05-17,2.75, 1.20, -10.57, 1.96, 1.63, 7.17, repro,
2009-05-18,4.66, 2.79, -7.71, 1.99, 1.63, 7.19, repro,
2009-05-19,5.58, 3.64, -8.91, 2.01, 1.64, 7.20, repro,
2009-05-20,6.63, 4.31, -7.10, 1.95, 1.62, 7.11, repro,
2009-05-21,7.31, 5.33, -5.76, 2.00, 1.66, 7.29, repro,
2009-05-22,7.19, 4.62, -5.37, 1.98, 1.63, 7.18, repro,
2009-05-23,5.69, 4.87, -10.33, 1.96, 1.63, 7.19, repro,
2009-05-24,5.99, 7.07, 2.74, 1.97, 1.63, 7.17, repro,
2009-05-25,1.41, 1.44, 5.60, 1.97, 1.63, 7.18, repro,
2009-05-26,2.48, 2.47, -0.34, 1.97, 1.64, 7.24, repro,
2009-05-27,6.21, 3.35, -4.65, 2.05, 1.73, 7.47, repro,
2009-05-28,7.16, 1.91, 7.57, 2.00, 1.69, 7.38, repro,
2009-05-29,4.28, 2.86, 1.72, 1.96, 1.64, 7.20, repro,
2009-05-30,8.98, 6.95, 1.27, 2.09, 1.67, 7.43, repro,
2009-05-31,4.00, 3.37, 3.81, 2.23, 1.85, 8.06, repro,
2009-06-01,10.08, 3.65, -10.48, 2.10, 1.73, 7.67, repro,
2009-06-02,9.38, 7.78, -3.34, 2.14, 1.73, 7.71, repro,
2009-06-03,8.87, 5.06, -12.42, 2.01, 1.68, 7.31, repro,
2009-06-04,4.38, 3.37, 3.10, 1.97, 1.62, 7.13, repro,
2009-06-05,5.27, 3.60, 1.08, 1.98, 1.62, 7.12, repro,
2009-06-06,9.93, 5.76, -3.95, 2.01, 1.66, 7.34, repro,
2009-06-07,10.06, 7.54, -11.19, 1.99, 1.64, 7.19, repro,
2009-06-08,8.84, 7.63, -7.42, 1.99, 1.65, 7.27, repro,
2009-06-09,10.07, 6.87, -1.34, 1.97, 1.62, 7.11, repro,
2009-06-10,11.52, 8.15, -1.34, 1.99, 1.62, 7.14, repro,
2009-06-11,5.30, 5.21, -4.30, 2.15, 1.86, 8.02, repro,
2009-06-12,6.24, 2.37, 0.52, 1.99, 1.64, 7.17, repro,
2009-06-13,9.88, 5.65, -8.48, 2.05, 1.67, 7.42, repro,
2009-06-14,6.41, 6.74, -8.14, 2.05, 1.67, 7.46, repro,
2009-06-15,9.85, 6.70, -7.43, 1.98, 1.62, 7.11, repro,
2009-06-16,11.53, 7.08, -9.16, 2.01, 1.64, 7.19, repro,
2009-06-17,9.18, 5.87, -6.60, 2.01, 1.63, 7.18, repro,
2009-06-18,9.62, 9.26, -3.36, 2.38, 2.00, 8.85, repro,
2009-06-19,7.18, 5.58, -4.24, 2.53, 1.98, 9.15, repro,
2009-06-20,3.85, 2.51, -1.44, 2.13, 1.74, 7.59, repro,
2009-06-21,11.60, 6.45, -2.29, 2.05, 1.65, 7.35, repro,
2009-06-22,8.75, 8.72, 6.34, 2.13, 1.72, 7.56, repro,
2009-06-23,10.10, 5.94, 4.36, 2.05, 1.70, 7.40, repro,
2009-06-24,7.44, 4.76, 0.96, 2.07, 1.67, 7.36, repro,
2009-06-25,8.71, 7.67, 1.85, 2.00, 1.63, 7.16, repro,
2009-06-26,11.47, 7.61, 1.69, 2.05, 1.64, 7.27, repro,
2009-06-27,9.66, 7.32, -5.19, 2.08, 1.66, 7.44, repro,
2009-06-28,8.81, 4.18, 1.26, 2.14, 1.79, 7.83, repro,
2009-06-29,10.91, 6.39, 6.28, 2.03, 1.65, 7.25, repro,
2009-06-30,8.90, 5.81, 10.39, 2.04, 1.66, 7.29, repro,
2009-07-01,6.90, 4.19, 8.67, 2.02, 1.63, 7.19, repro,
2009-07-02,6.41, 3.31, 3.91, 1.96, 1.61, 7.04, repro,
2009-07-03,8.36, 4.03, 1.73, 1.97, 1.61, 7.07, repro,
2009-07-04,5.15, 3.92, 2.39, 1.98, 1.62, 7.08, repro,
2009-07-05,5.04, 1.62, 1.59, 1.98, 1.64, 7.14, repro,
2009-07-06,8.43, 5.81, 6.10, 1.98, 1.62, 7.14, repro,
2009-07-07,7.11, 8.17, 11.51, 2.10, 1.70, 7.59, repro,
2009-07-08,7.05, 6.24, 9.56, 2.02, 1.66, 7.36, repro,
2009-07-09,6.47, 4.25, 3.97, 1.98, 1.62, 7.12, repro,
2009-07-10,9.66, 8.11, 3.90, 2.00, 1.64, 7.20, repro,
2009-07-11,10.84, 6.23, -3.09, 2.13, 1.76, 7.71, repro,
2009-07-12,9.80, 6.43, -0.30, 1.98, 1.61, 7.11, repro,
2009-07-13,9.37, 6.83, 5.01, 1.98, 1.61, 7.10, repro,
2009-07-14,8.28, 5.99, 2.07, 1.98, 1.61, 7.11, repro,
2009-07-15,11.92, 5.08, 4.09, 2.08, 1.69, 7.50, repro,
2009-07-16,7.75, 5.80, 3.75, 1.99, 1.64, 7.18, repro,
2009-07-17,10.33, 4.97, 2.68, 2.00, 1.64, 7.30, repro,
2009-07-18,5.54, 3.26, 2.26, 1.97, 1.61, 7.09, repro,
2009-07-19,3.99, 4.26, 8.60, 1.98, 1.61, 7.10, repro,
2009-07-20,3.92, 4.32, 12.82, 2.02, 1.67, 7.35, repro,
2009-07-21,7.86, 4.70, 8.37, 1.98, 1.61, 7.10, repro,
2009-07-22,6.45, 2.92, 1.47, 1.97, 1.63, 7.18, repro,
2009-07-23,5.82, 3.78, -3.77, 2.14, 1.72, 7.62, repro,
2009-07-24,6.99, 4.28, 4.61, 2.03, 1.64, 7.33, repro,
2009-07-25,6.57, 7.15, 5.45, 2.02, 1.70, 7.42, repro,
2009-07-26,6.08, 4.57, 6.13, 2.06, 1.73, 7.50, repro,
2009-07-27,6.66, 5.92, 5.62, 1.98, 1.62, 7.15, repro,
2009-07-28,10.19, 8.75, 3.62, 2.05, 1.68, 7.35, repro,
2009-07-29,7.75, 7.71, -1.51, 2.01, 1.64, 7.29, repro,
2009-07-30,7.60, 5.88, 12.14, 2.00, 1.65, 7.22, repro,
2009-07-31,10.54, 5.64, 5.88, 1.97, 1.61, 7.12, repro,
2009-08-01,7.11, 5.78, 2.37, 1.99, 1.62, 7.17, repro,
2009-08-02,7.20, 4.36, -1.49, 1.99, 1.63, 7.24, repro,
2009-08-03,5.16, 4.27, 7.14, 1.99, 1.64, 7.27, repro,
2009-08-04,8.37, 7.78, 2.60, 2.08, 1.71, 7.69, repro,
2009-08-05,9.41, 8.25, -3.04, 2.00, 1.64, 7.31, repro,
2009-08-06,8.83, 5.90, 0.27, 1.97, 1.62, 7.23, repro,
2009-08-07,6.46, 6.45, 3.81, 1.98, 1.62, 7.17, repro,
2009-08-08,6.26, 5.15, 4.36, 1.98, 1.63, 7.27, repro,
2009-08-09,9.39, 8.36, 2.80, 2.01, 1.63, 7.32, repro,
2009-08-10,9.40, 8.98, 4.03, 2.01, 1.65, 7.37, repro,
2009-08-11,8.72, 7.21, 1.28, 2.12, 1.71, 7.67, repro,
2009-08-12,7.91, 6.03, 2.18, 1.98, 1.62, 7.20, repro,
2009-08-13,7.07, 5.27, 0.13, 2.01, 1.64, 7.31, repro,
2009-08-14,8.41, 6.28, 4.73, 2.01, 1.63, 7.32, repro,
2009-08-15,6.86, 7.38, 7.83, 2.00, 1.62, 7.27, repro,
2009-08-16,7.88, 8.79, 9.14, 2.10, 1.74, 7.71, repro,
2009-08-17,9.45, 8.75, 1.36, 2.18, 1.76, 8.13, repro,
2009-08-18,9.79, 7.99, 1.51, 2.07, 1.69, 7.52, repro,
2009-08-19,8.36, 9.59, 5.38, 2.08, 1.66, 7.54, repro,
2009-08-20,4.61, 5.52, 17.56, 2.07, 1.69, 7.62, repro,
2009-08-21,3.36, 4.20, 19.49, 2.11, 1.74, 7.81, repro,
2009-08-22,3.27, 3.10, 11.47, 2.12, 1.73, 7.73, repro,
2009-08-23,3.77, 3.68, 17.44, 2.18, 1.75, 7.92, repro,
2009-08-24,3.46, 4.08, 14.43, 2.05, 1.65, 7.44, repro,
2009-08-25,4.62, 5.54, 10.15, 2.05, 1.66, 7.46, repro,
2009-08-26,5.38, 6.48, 8.45, 2.06, 1.66, 7.49, repro,
2009-08-27,8.90, 8.91, -1.56, 2.05, 1.66, 7.49, repro,
2009-08-28,1.16, 3.68, 11.06, 2.39, 1.98, 8.95, repro,
2009-08-29,1.73, 2.85, 14.76, 2.02, 1.63, 7.34, repro,
2009-08-30,0.49, 1.95, 14.72, 2.08, 1.65, 7.61, repro,
2009-08-31,3.70, 3.02, 5.69, 2.01, 1.64, 7.42, repro,
2009-09-01,4.13, 3.92, 7.67, 2.13, 1.69, 7.74, repro,
2009-09-02,4.19, 5.07, 11.95, 2.07, 1.66, 7.59, repro,
2009-09-03,5.87, 5.57, 10.75, 2.01, 1.64, 7.37, repro,
2009-09-04,7.99, 5.56, 11.80, 2.09, 1.66, 7.66, repro,
2009-09-05,6.40, 6.44, 9.11, 2.02, 1.64, 7.41, repro,
2009-09-06,8.76, 7.51, -4.76, 2.07, 1.67, 7.55, repro,
2009-09-07,7.74, 7.02, 9.32, 2.01, 1.64, 7.33, repro,
2009-09-08,6.71, 7.07, 11.44, 2.01, 1.65, 7.40, repro,
2009-09-09,6.41, 6.91, 7.23, 2.01, 1.64, 7.30, repro,
2009-09-10,8.26, 7.63, 0.49, 2.07, 1.66, 7.54, repro,
2009-09-11,7.45, 8.41, -2.09, 2.01, 1.64, 7.33, repro,
2009-09-12,9.48, 7.46, 5.47, 2.00, 1.63, 7.28, repro,
2009-09-13,7.67, 7.05, 9.48, 1.99, 1.65, 7.32, repro,
2009-09-14,8.29, 7.29, 8.46, 1.99, 1.65, 7.32, repro,
2009-09-15,10.72, 9.28, 3.06, 1.96, 1.62, 7.19, repro,
2009-09-16,10.71, 7.94, -2.17, 1.96, 1.62, 7.16, repro,
2009-09-17,6.37, 5.04, 6.33, 2.38, 2.01, 8.76, repro,
2009-09-18,4.18, 3.88, 13.89, 2.02, 1.65, 7.51, repro,
2009-09-19,4.51, 4.80, 8.70, 1.96, 1.63, 7.27, repro,
2009-09-20,6.70, 5.05, 8.74, 1.99, 1.64, 7.37, repro,
2009-09-21,8.12, 6.43, 9.61, 1.97, 1.62, 7.22, repro,
2009-09-22,9.37, 9.07, 2.31, 2.03, 1.65, 7.43, repro,
2009-09-23,6.21, 7.24, 10.42, 2.01, 1.65, 7.38, repro,
2009-09-24,8.93, 8.40, 2.47, 1.95, 1.63, 7.26, repro,
2009-09-25,7.07, 7.31, 2.05, 2.00, 1.63, 7.30, repro,
2009-09-26,5.44, 4.53, 14.83, 2.05, 1.65, 7.51, repro,
2009-09-27,6.18, 3.75, 16.41, 1.97, 1.63, 7.27, repro,
2009-09-28,2.99, 2.96, 22.20, 2.01, 1.65, 7.36, repro,
2009-09-29,1.33, 0.70, 21.53, 2.02, 1.66, 7.51, repro,
2009-09-30,1.95, 2.42, 19.17, 1.96, 1.62, 7.24, repro,
2009-10-01,0.11, 0.85, 21.62, 2.02, 1.67, 7.42, repro,
2009-10-02,-1.03, 0.58, 29.14, 2.11, 1.71, 7.82, repro,
2009-10-03,0.10, -0.35, 21.01, 1.96, 1.62, 7.22, repro,
2009-10-04,1.18, 0.25, 11.49, 1.96, 1.61, 7.22, repro,
2009-10-05,2.38, 2.48, 16.87, 1.94, 1.61, 7.17, repro,
2009-10-06,0.71, 1.39, 24.28, 1.97, 1.63, 7.31, repro,
2009-10-07,0.88, 0.58, 23.28, 1.96, 1.61, 7.21, repro,
2009-10-08,0.65, 0.72, 9.68, 2.00, 1.68, 7.51, repro,
2009-10-09,-0.22, -1.00, 4.72, 1.95, 1.62, 7.23, repro,
2009-10-10,0.17, -0.28, 10.05, 2.08, 1.76, 7.88, repro,
2009-10-11,-0.30, -0.55, 14.18, 1.95, 1.63, 7.29, repro,
2009-10-12,1.95, 0.26, 6.21, 1.94, 1.63, 7.25, repro,
2009-10-13,1.29, 0.01, 9.22, 1.96, 1.62, 7.26, repro,
2009-10-14,0.12, 0.27, 5.88, 2.02, 1.70, 7.61, repro,
2009-10-15,0.16, 0.01, 6.06, 2.09, 1.77, 7.93, repro,
2009-10-16,0.90, -1.03, 6.69, 2.08, 1.76, 7.86, repro,
2009-10-17,-0.56, 0.10, 8.67, 2.04, 1.70, 7.62, repro,
2009-10-18,0.55, 0.22, 11.46, 2.05, 1.69, 7.60, repro,
2009-10-19,2.06, 1.56, 10.47, 2.09, 1.76, 7.86, repro,
2009-10-20,3.24, 3.07, 7.61, 2.09, 1.77, 7.91, repro,
2009-10-21,3.98, 4.18, 16.16, 2.05, 1.72, 7.74, repro,
2009-10-22,1.03, 1.57, 14.63, 2.01, 1.70, 7.55, repro,
2009-10-23,1.47, 0.75, 7.07, 2.01, 1.68, 7.51, repro,
2009-10-24,0.38, -1.06, 11.29, 2.03, 1.68, 7.50, repro,
2009-10-25,3.10, 2.00, 9.67, 2.00, 1.66, 7.39, repro,
2009-10-26,1.86, 1.41, 5.45, 2.07, 1.69, 7.65, repro,
2009-10-27,-1.15, 1.66, 12.76, 2.04, 1.73, 7.70, repro,
2009-10-28,0.92, 1.38, 11.93, 2.04, 1.72, 7.63, repro,
2009-10-29,2.46, 0.29, 7.62, 2.00, 1.67, 7.38, repro,
2009-10-30,4.45, 2.92, -1.66, 2.23, 1.83, 8.33, repro,
2009-10-31,1.78, -0.34, 13.88, 2.11, 1.78, 7.87, repro,
2009-11-01,2.18, 0.39, 11.50, 2.23, 1.84, 8.33, repro,
2009-11-02,3.77, 2.13, 3.51, 2.11, 1.80, 7.98, repro,
2009-11-03,1.99, 0.75, 5.70, 2.06, 1.76, 7.74, repro,
2009-11-04,3.15, 0.55, 0.78, 2.03, 1.71, 7.56, repro,
2009-11-05,1.56, 0.11, 6.85, 2.08, 1.73, 7.74, repro,
2009-11-06,4.19, 3.06, 6.02, 2.15, 1.80, 8.03, repro,
2009-11-07,5.52, 4.07, 7.72, 2.05, 1.72, 7.68, repro,
2009-11-08,8.04, 6.76, -1.11, 2.08, 1.77, 7.85, repro,
2009-11-09,11.26, 7.11, -8.92, 2.13, 1.80, 7.98, repro,
2009-11-10,11.31, 6.20, -12.90, 2.13, 1.79, 7.96, repro,
2009-11-11,6.30, 3.65, -1.73, 2.02, 1.66, 7.42, repro,
2009-11-12,3.32, 3.42, 7.69, 2.11, 1.75, 7.89, repro,
2009-11-13,3.57, 3.05, 11.40, 2.04, 1.73, 7.67, repro,
2009-11-14,3.58, 4.17, 11.08, 2.14, 1.82, 8.13, repro,
2009-11-15,6.91, 5.04, -2.09, 2.08, 1.77, 7.84, repro,
2009-11-16,0.14, 0.42, -3.54, 2.01, 1.68, 7.47, repro,
2009-11-17,2.04, -0.80, -5.02, 2.05, 1.74, 7.73, repro,
2009-11-18,-0.25, 0.47, 5.58, 2.06, 1.73, 7.75, repro,
2009-11-19,0.41, 0.06, 0.45, 2.07, 1.77, 7.80, repro,
2009-11-20,1.41, 3.84, 2.32, 2.04, 1.72, 7.65, repro,
2009-11-21,3.48, 2.29, 7.95, 1.99, 1.68, 7.42, repro,
2009-11-22,4.99, 3.68, 5.51, 2.02, 1.72, 7.57, repro,
2009-11-23,3.54, 3.94, 2.53, 1.96, 1.66, 7.30, repro,
2009-11-24,3.59, 3.10, 6.65, 2.00, 1.70, 7.50, repro,
2009-11-25,0.90, -0.23, 1.07, 1.95, 1.65, 7.25, repro,
2009-11-26,-0.98, -0.53, 9.53, 1.94, 1.63, 7.18, repro,
2009-11-27,0.82, -0.20, 15.57, 1.99, 1.68, 7.44, repro,
2009-11-28,2.74, 0.58, 12.60, 2.00, 1.67, 7.33, repro,
2009-11-29,7.86, 3.68, 1.75, 2.00, 1.68, 7.41, repro,
2009-11-30,0.73, -0.79, 16.39, 2.03, 1.74, 7.48, repro,
2009-12-01,0.30, 0.49, 13.64, 2.02, 1.74, 7.48, repro,
2009-12-02,1.82, 1.10, 16.39, 1.97, 1.64, 7.26, repro,
2009-12-03,-0.25, -0.14, 14.46, 1.97, 1.63, 7.25, repro,
2009-12-04,-1.10, -1.42, 8.14, 2.04, 1.67, 7.54, repro,
2009-12-05,-0.10, -1.19, 12.86, 1.97, 1.65, 7.30, repro,
2009-12-06,-0.17, -1.06, 14.22, 1.95, 1.64, 7.24, repro,
2009-12-07,-0.41, -1.06, 7.75, 1.99, 1.68, 7.33, repro,
2009-12-08,-1.37, -0.43, 4.63, 1.99, 1.67, 7.31, repro,
2009-12-09,-1.51, -1.77, 20.00, 2.06, 1.72, 7.62, repro,
2009-12-10,-0.87, -2.70, 13.79, 2.01, 1.68, 7.37, repro,
2009-12-11,-1.22, -1.17, 11.00, 2.02, 1.68, 7.47, repro,
2009-12-12,-1.12, -0.52, 8.24, 2.07, 1.77, 7.66, repro,
2009-12-13,-0.98, -0.17, 9.18, 1.96, 1.65, 7.28, repro,
2009-12-14,1.83, -3.48, 24.05, 6.16, 4.45, 21.44, repro,
2010-02-02,0.42, -0.50, 11.39, 2.04, 1.73, 7.52, repro,
2010-02-03,-1.40, -0.73, 9.26, 2.08, 1.71, 7.69, repro,
2010-02-04,0.12, 0.88, 8.21, 2.11, 1.72, 7.65, repro,
2010-02-05,-0.76, 2.56, 9.87, 2.07, 1.68, 7.58, repro,
2010-02-06,0.50, -0.24, 9.71, 2.07, 1.71, 7.56, repro,
2010-02-07,1.45, -0.31, 8.01, 2.04, 1.68, 7.44, repro,
2010-02-08,-0.06, 0.49, 8.05, 2.04, 1.68, 7.36, repro,
2010-02-09,-1.31, -0.54, 5.24, 2.12, 1.76, 7.87, repro,
2010-02-10,-1.17, -0.31, 4.17, 2.21, 1.84, 8.03, repro,
2010-02-11,1.48, -0.08, 5.94, 2.30, 1.83, 8.27, repro,
2010-02-12,0.96, -0.12, 9.92, 2.24, 1.78, 8.03, repro,
2010-02-13,0.43, -0.52, 9.67, 1.99, 1.66, 7.26, repro,
2010-02-14,-0.61, -1.11, 6.80, 1.99, 1.66, 7.23, repro,
2010-02-15,-1.31, -0.79, 8.51, 2.02, 1.68, 7.38, repro,
2010-02-16,0.80, -1.34, 8.52, 2.11, 1.79, 7.77, repro,
2010-02-17,1.90, 0.14, 5.65, 2.11, 1.76, 7.75, repro,
2010-02-18,1.80, 0.45, 3.69, 2.15, 1.79, 7.87, repro,
2010-02-19,2.92, 1.53, 5.56, 2.09, 1.78, 7.68, repro,
2010-02-20,0.21, 2.46, 6.06, 2.01, 1.67, 7.29, repro,
2010-02-21,-1.36, 0.14, 2.93, 1.97, 1.65, 7.24, repro,
2010-02-22,2.95, 1.08, 1.11, 2.09, 1.76, 7.75, repro,
2010-02-23,1.77, 1.42, 6.74, 2.03, 1.73, 7.64, repro,
2010-02-24,-0.50, -0.89, 10.89, 1.98, 1.69, 7.39, repro,
2010-02-25,0.06, 0.07, 6.15, 2.13, 1.81, 8.01, repro,
2010-02-26,1.72, 0.22, 6.73, 2.29, 1.84, 8.11, repro,
2010-02-27,2.66, 0.14, 8.04, 2.15, 1.77, 7.82, repro,
2010-02-28,3.73, 0.69, 7.00, 2.04, 1.71, 7.43, repro,
2010-03-01,3.57, 1.32, 2.59, 2.22, 1.77, 7.79, repro,
2010-03-02,4.36, 2.43, 3.57, 1.99, 1.68, 7.24, repro,
2010-03-03,4.04, 2.74, 5.99, 2.05, 1.73, 7.48, repro,
2010-03-04,4.85, 3.07, 2.89, 2.05, 1.72, 7.41, repro,
2010-03-05,5.98, 3.85, 0.04, 1.94, 1.64, 7.14, repro,
2010-03-06,3.90, 1.73, 1.48, 1.93, 1.63, 7.08, repro,
2010-03-07,3.74, 2.85, 5.88, 1.95, 1.66, 7.17, repro,
2010-03-08,1.92, 2.38, 4.16, 1.96, 1.66, 7.17, repro,
2010-03-09,0.74, 2.58, 9.35, 1.96, 1.66, 7.19, repro,
2010-03-10,4.42, 5.45, 9.79, 1.95, 1.65, 7.17, repro,
2010-03-11,5.86, 3.46, 7.19, 1.98, 1.71, 7.35, repro,
2010-03-12,2.40, 0.71, 12.22, 1.93, 1.65, 7.13, repro,
2010-03-13,-0.48, -0.28, 14.73, 1.96, 1.66, 7.21, repro,
2010-03-14,3.21, 1.53, 8.94, 1.97, 1.67, 7.23, repro,
2010-03-15,2.40, 1.59, 6.67, 1.96, 1.67, 7.19, repro,
2010-03-16,3.48, 2.08, -1.17, 1.97, 1.69, 7.22, repro,
2010-03-17,3.59, 3.76, 0.46, 1.98, 1.69, 7.23, repro,
2010-03-18,5.24, 2.87, 4.10, 1.96, 1.67, 7.21, repro,
2010-03-19,4.46, 3.35, 4.96, 2.07, 1.71, 7.54, repro,
2010-03-20,4.00, 1.29, 8.69, 1.96, 1.68, 7.25, repro,
2010-03-21,0.84, 0.30, 9.65, 1.94, 1.67, 7.21, repro,
2010-03-22,2.34, 0.42, 8.90, 1.92, 1.67, 7.16, repro,
2010-03-23,4.90, 2.60, 8.03, 1.98, 1.69, 7.39, repro,
2010-03-24,7.64, 5.05, 0.57, 1.98, 1.71, 7.41, repro,
2010-03-25,4.88, 2.18, 7.33, 1.99, 1.72, 7.44, repro,
2010-03-26,3.26, 1.22, 10.18, 1.98, 1.72, 7.41, repro,
2010-03-27,2.51, 0.59, 7.01, 1.94, 1.70, 7.32, repro,
2010-03-28,7.40, 3.67, -5.37, 1.97, 1.72, 7.37, repro,
2010-03-29,4.93, 2.53, 5.01, 2.02, 1.74, 7.62, repro,
2010-03-30,5.20, 4.53, 12.37, 2.08, 1.80, 7.90, repro,
2010-03-31,6.55, 5.50, 8.62, 2.13, 1.78, 7.77, repro,
2010-04-01,8.48, 6.47, -0.85, 2.01, 1.74, 7.58, repro,
2010-04-02,7.65, 5.73, 6.97, 2.00, 1.74, 7.46, repro,
2010-04-03,3.57, 0.64, 11.11, 2.03, 1.76, 7.57, repro,
2010-04-04,2.46, 3.23, 11.59, 1.97, 1.72, 7.42, repro,
2010-04-05,8.29, 6.09, -0.71, 1.99, 1.74, 7.54, repro,
2010-04-06,8.64, 5.69, 7.34, 2.01, 1.74, 7.46, repro,
2010-04-07,10.25, 6.17, 5.00, 2.12, 1.86, 8.08, repro,
2010-04-08,2.67, 0.66, 11.52, 1.97, 1.71, 7.37, repro,
2010-04-09,4.84, 2.74, 3.99, 2.06, 1.81, 7.88, repro,
2010-04-10,4.37, 3.24, 4.88, 2.00, 1.77, 7.61, repro,
2010-04-11,8.11, 5.14, -7.65, 1.97, 1.73, 7.43, repro,
2010-04-12,7.06, 4.98, -8.77, 2.07, 1.89, 8.01, repro,
2010-04-13,8.17, 5.95, -6.82, 2.00, 1.71, 7.51, repro,
2010-04-14,6.49, 4.83, -8.31, 1.98, 1.76, 7.41, repro,
2010-04-15,6.71, 4.28, -4.09, 2.00, 1.77, 7.47, repro,
2010-04-16,4.58, 1.31, -3.26, 1.95, 1.69, 7.28, repro,
2010-04-17,4.05, 2.47, -4.07, 1.99, 1.73, 7.36, repro,
2010-04-18,4.33, 3.20, 0.43, 1.99, 1.72, 7.40, repro,
2010-04-19,5.27, 2.72, -0.21, 1.99, 1.72, 7.62, repro,
2010-04-20,5.91, 3.15, 0.52, 2.01, 1.71, 7.42, repro,
2010-04-21,6.87, 2.79, 4.68, 1.98, 1.76, 7.57, repro,
2010-04-22,5.84, 4.18, 3.40, 2.00, 1.74, 7.57, repro,
2010-04-23,3.22, 2.01, 6.03, 2.02, 1.77, 7.64, repro,
2010-04-24,6.20, 4.29, -0.78, 2.04, 1.77, 7.75, repro,
2010-04-25,4.54, 2.49, 10.34, 1.95, 1.69, 7.34, repro,
2010-04-26,2.90, 1.74, 7.45, 1.93, 1.67, 7.27, repro,
2010-04-27,4.19, 2.45, 5.82, 1.97, 1.74, 7.47, repro,
2010-04-28,4.48, 2.61, 3.62, 1.96, 1.72, 7.43, repro,
2010-04-29,6.73, 4.88, 7.57, 1.98, 1.71, 7.39, repro,
2010-04-30,9.97, 7.98, 7.87, 1.94, 1.68, 7.31, repro,
2010-05-01,9.99, 8.08, 1.49, 1.96, 1.68, 7.33, repro,
2010-05-02,9.90, 8.22, -1.89, 1.93, 1.67, 7.22, repro,
2010-05-03,9.14, 6.19, -3.96, 2.09, 1.91, 8.09, repro,
2010-05-04,8.30, 7.60, -1.29, 1.97, 1.67, 7.38, repro,
2010-05-05,9.88, 7.28, -3.71, 1.93, 1.68, 7.25, repro,
2010-05-06,6.79, 4.13, -2.30, 1.96, 1.68, 7.30, repro,
2010-05-07,10.17, 6.27, -5.68, 1.97, 1.71, 7.39, repro,
2010-05-08,0.57, 0.13, 4.19, 1.91, 1.66, 7.15, repro,
2010-05-09,4.26, 2.76, -5.10, 1.93, 1.66, 7.19, repro,
2010-05-10,4.55, 4.27, -4.99, 1.94, 1.67, 7.23, repro,
2010-05-11,5.10, 4.79, -6.45, 1.98, 1.70, 7.40, repro,
2010-05-12,3.73, 4.19, -6.06, 2.00, 1.72, 7.41, repro,
2010-05-13,10.08, 6.58, -1.72, 1.95, 1.68, 7.27, repro,
2010-05-14,9.09, 7.37, -17.21, 1.98, 1.75, 7.57, repro,
2010-05-15,9.42, 5.56, -11.08, 1.97, 1.71, 7.40, repro,
2010-05-16,9.42, 5.44, -7.37, 1.95, 1.67, 7.25, repro,
2010-05-17,5.96, 3.19, 0.65, 1.95, 1.68, 7.26, repro,
2010-05-18,5.21, 4.37, -4.13, 1.95, 1.67, 7.25, repro,
2010-05-19,9.84, 6.55, -2.79, 2.03, 1.75, 7.54, repro,
2010-05-20,12.16, 7.94, -14.89, 2.02, 1.75, 7.50, repro,
2010-05-21,11.01, 7.01, -7.33, 2.02, 1.71, 7.40, repro,
2010-05-22,9.66, 7.74, -7.91, 1.99, 1.69, 7.27, repro,
2010-05-23,9.57, 8.89, -1.01, 2.00, 1.70, 7.33, repro,
2010-05-24,9.29, 6.70, -4.42, 2.01, 1.69, 7.36, repro,
2010-05-25,5.85, 7.97, -3.28, 2.06, 1.73, 7.43, repro,
2010-05-26,5.40, 5.08, -10.35, 2.06, 1.72, 7.58, repro,
2010-05-27,7.58, 4.83, 13.07, 1.97, 1.67, 7.31, repro,
2010-05-28,8.40, 6.69, 7.48, 1.97, 1.66, 7.25, repro,
2010-05-29,8.07, 5.69, 0.58, 1.98, 1.66, 7.31, repro,
2010-05-30,9.40, 6.19, 3.95, 2.17, 1.79, 7.84, repro,
2010-05-31,8.41, 6.29, 3.92, 2.05, 1.72, 7.52, repro,
2010-06-01,9.58, 8.32, 5.00, 2.03, 1.68, 7.43, repro,
2010-06-02,9.31, 7.17, 11.34, 2.03, 1.70, 7.48, repro,
2010-06-03,7.12, 6.23, 12.21, 1.98, 1.65, 7.30, repro,
2010-06-04,5.93, 5.87, 9.09, 2.02, 1.69, 7.42, repro,
2010-06-05,8.32, 6.87, 4.57, 2.07, 1.71, 7.65, repro,
2010-06-06,7.28, 2.55, 0.43, 2.14, 1.79, 7.92, repro,
2010-06-07,4.74, 4.04, 8.52, 2.01, 1.66, 7.34, repro,
2010-06-08,4.36, 4.09, 12.61, 2.01, 1.67, 7.41, repro,
2010-06-09,5.27, 3.58, 11.22, 2.17, 1.85, 8.07, repro,
2010-06-10,8.82, 6.38, 5.45, 1.99, 1.64, 7.28, repro,
2010-06-11,11.30, 8.22, 10.73, 2.12, 1.76, 7.87, repro,
2010-06-12,9.85, 9.36, 12.27, 2.00, 1.67, 7.38, repro,
2010-06-13,12.17, 7.67, 4.86, 2.40, 1.91, 8.43, repro,
2010-06-14,8.61, 8.81, 5.60, 2.18, 1.78, 8.20, repro,
2010-06-15,13.23, 6.26, -1.57, 2.05, 1.70, 7.53, repro,
2010-06-16,10.20, 7.35, 3.71, 2.06, 1.73, 7.76, repro,
2010-06-17,11.38, 8.66, 0.54, 2.03, 1.70, 7.55, repro,
2010-06-18,10.81, 6.88, 4.90, 2.27, 1.89, 8.52, repro,
2010-06-19,10.19, 8.49, 0.01, 2.06, 1.77, 7.81, repro,
2010-06-20,10.70, 7.31, 5.28, 1.96, 1.64, 7.28, repro,
2010-06-21,6.96, 9.72, 16.28, 2.21, 1.75, 8.13, repro,
2010-06-22,11.52, 6.84, 16.18, 2.10, 1.77, 8.14, repro,
2010-06-23,9.48, 8.03, 3.61, 1.99, 1.66, 7.42, repro,